Regional Weather Roundup
Issued by NWS Charleston, SC

Current Version | Previous Version | Graphics & Text | Print | Product List | Glossary On
Versions: 1 2 3 4 5 6 7 8 9 10 11 12 13 14 15 16 17 18 19 20 21 22 23 24 25 26 27 28 29 30 31 32 33 34 35 36 37 38 39 40 41 42 43 44 45 46 47 48 49 50
000
ASUS42 KCHS 241127
RWRCHS

REGIONAL WEATHER ROUNDUP
NATIONAL WEATHER SERVICE CHARLESTON SC
600 AM EST FRI NOV 24 2017

NOTE: "FAIR" INDICATES FEW OR NO CLOUDS BELOW 12,000 FEET WITH NO
SIGNIFICANT WEATHER AND/OR OBSTRUCTIONS TO VISIBILITY.

NOT ALL STATIONS ARE QUALITY CONTROLLED. USE DATA WITH CAUTION...
ESPECIALLY DEWPOINT OBSERVATIONS.

SCZ027-030-031-034>040-042>050-241200-
...SOUTHEAST SOUTH CAROLINA...

CITY           SKY/WX    TMP DP  RH WIND       PRES   REMARKS
N CHARLESTON   CLEAR     43  40  89 N10       29.98S
WATERFRONT PRK   N/A     47  44  90 N10       29.82R
JOHNS ISLAND   FAIR      46  41  81 N8        29.98R
PINOPOLIS        N/A     45  43  93 NE14      29.93R
MONCKS CORNER  FAIR      41  37  87 N7        30.00S
SUMMERVILLE    FAIR      41  37  87 N5        30.01S
BEAUFORT MCAS  CLEAR     45  41  86 N9        29.98S
BEAUFORT ARPT  FAIR      45  41  87 N9        29.97S
HILTON HEAD IS NOT AVBL
WALTERBORO     SUNNY     41  36  81 N6        30.01S
ALLENDALE      FAIR      39  36  87 N8        30.01R WCI  34

...SOUTHERN MIDLANDS AND PEE DEE...

CITY           SKY/WX    TMP DP  RH WIND       PRES   REMARKS
GEORGETOWN     FAIR      41  41 100 N9        30.00S
KINGSTREE      FAIR      36  34  93 N5        30.03S WCI  32
ORANGEBURG     CLEAR     37  34  89 CALM      30.02S
BARNWELL         N/A     37  34  87 CALM      30.02S
AIKEN          FAIR      34  32  93 CALM      30.06R
MANNING        FAIR      36  34  93 MISG      30.02S
COLUMBIA       CLEAR     31  30  96 CALM      30.04R
SUMTER         CLEAR     34  31  87 N3        30.01R
FLORENCE       CLEAR     35  32  88 NE5       30.04R WCI  31
MYRTLE BEACH   NOT AVBL
N MYRTLE BEACH PTCLDY    42  38  85 N10       30.00R

$$

GAZ063-065-086>088-099>101-113>116-118-119-134>141-150-241200-
...SOUTHEAST GEORGIA...

CITY           SKY/WX    TMP DP  RH WIND       PRES   REMARKS
SAVANNAH ARPT  PTCLDY    43  40  89 N9        29.98R
HUNTER AAF     MOCLDY    46  41  81 N5        29.94R
FORT STEWART   CLEAR     43  39  85 N3        29.96R
STATESBORO     CLEAR     40  34  79 N6        30.00S WCI  36
SYLVANIA       SUNNY     41  37  85 N8        30.01S
CLAXTON        FAIR      43  38  81 CALM      30.00R

...CSRA...CENTRAL AND FAR SOUTHEAST GEORGIA...

CITY           SKY/WX    TMP DP  RH WIND       PRES   REMARKS
THOMSON        PTCLDY    30  29  95 CALM      30.10R
AUGUSTA-BUSH   CLEAR     33  32  96 N5        30.03S WCI  29
AUGUSTA-DANIEL CLEAR     38  34  85 N7        30.03S WCI  33
SWAINSBORO     FAIR      39  36  87 NE7       30.02S WCI  34
VIDALIA        CLEAR     41  37  87 N6        30.01R
EASTMAN        FAIR      40  32  72 CALM      30.04R
HAZLEHURST     FAIR      42  38  85 CALM      29.99R
ALMA           CLEAR     44  39  82 N7        29.98R
WAYCROSS       CLEAR     45  42  90 N5        29.98R
JESUP          FAIR      46  39  76 CALM      29.98R
BAXLEY         FAIR      41  41 100 N3        29.99R
BRUNSWICK      PTCLDY    48  45  87 N6        29.95S
SAINT SIMONS   PTCLDY    50  48  93 N10       29.92R

$$

SCZ027-028-034-036>038-045-046-048>050-GAZ119-141-241200-
...LAKE AND SUPPLEMENTAL COASTAL OBSERVATIONS...

STATION/POSITION TIME  TEMP    WIND        PRES    WAVE   SWELL
                       AIR SEA DIR/SP/G            HT/PER HT/PER/DIR
                 (UTC) (F)     (DEG/KT/KT) (MB)    (FT/S) (FT/S/D)
WINYAH BAY       1045   43     360/  7     1015.0S
LAKE MURRAY      1120   36     350/  2/  4 1016.9R
ACE BASIN NERRS  1045   44     360/  4     1015.0S
FORT PULASKI     1100   48 60  360/  9/ 12 1014.5
SAPELO ISLAND    1100   50     360/ 11     1013.0

$$

ANZ835-935-AMZ111-154-330-350-352-354-370-450-454-472-241200-
...C-MAN AND BUOY OBSERVATIONS...

STATION/POSITION TIME  TEMP    WIND        PRES    WAVE   SWELL
                       AIR SEA DIR/SP/G            HT/PER HT/PER/DIR
                 (UTC) (F)     (DEG/KT/KT) (MB)    (FT/S) (FT/S/D)
BUOY 41004       1110   62 74   20/ 23/ 29 1012.7
BUOY 41008       1050   58 66   30/ 21/ 27 1012.3R   6/ 6   3/100/ 9
FOLLY BEACH CMAN 1100   48     350/  9/ 12 1015.2R
CAPERS NEARSHORE 1108   48 61   10/ 17/ 23 1014.1R
FRIPP NEARSHORE  1108   49 61  360/ 12/ 25 1013.3F


STATION/POSITION TIME  TEMP    WIND        PRES    WAVE   SWELL
                       AIR SEA DIR/SP/G            HT/PER HT/PER/DIR
                 (UTC) (F)     (DEG/KT/KT) (MB)    (FT/S) (FT/S/D)
5E ST. MARYS GA  1100      66                N/A     6/ 7   2/ 80/11
FRYING PAN BUOY  1110   60 72   20/ 23/ 29 1013.9
BUOY 41025       1110   58 71   20/ 17/ 21 1016.1
CAPE LOOKOUT NC  1100           20/ 14/ 17 1016.4R
BUOY 41002       1050   72 76  100/ 12/ 14 1009.7F  10/ 8   8/ 40/ 8
BUOY 41010       NOT AVBL
ST AUGUSTINE FL  1100   61 68  360/ 28/ 32 1010.7F


$$




USA.gov is the U.S. government's official web portal to all federal, state and local government web resources and services.